Content
SEND FEEDBACK

Daily
Averages
Monthly
Summary
Iran

BUSHEHR, IRAN


Home > Middle East > Iran
Elevation: 62 feet     Latitude: 28 59N     Longitude: 050 50E

WEATHER
 
SELECT A DAY
Number of Records: 111,401;   Date Range: 6/3/03 - 8/31/14
 
SHARE

PRINT THIS DATA

[ ← Previous Day ]
WEATHER ALMANAC - FEBRUARY 13, 2013
[ Next Day → ]
[ °C ]   °F
Weather ElementAverageHighLow
Temperature65.8 °F68 °F (10:00 am)62.6 °F (4:20 am)
Dewpoint52.4 °F60.8 °F (12:30 am)44.6 °F (10:20 pm)
Humidity61.9 %88 % (7:20 am)38 % (9:30 pm)
Barometer29.99 in30.05 in (12:30 pm)29.92 in (12:30 am)
Wind Speed14.1 mph23 mph (12:20 pm)
Weather ElementAverage
Visibility4.6 mi
Wind DirectionWNW (290.2 °)

Weather ElementTotal
Precipitation---
Cooling Degree Days0.3 (Base 65)
Growing Degree Days15.3 (Base 50)
Averaged from 62 records on February 13, 2013
WEATHER CONDITIONS BREAKOUT
WIND DIRECTION BREAKOUT
WEATHER BY HOUR - FEBRUARY 13, 2013
[ °C ]   °F
Local TimeTemperatureDewpointHumidityBarometerVisibilityWind DirectionWind SpeedGust SpeedPrecipitationEventsConditions
12:30 AM66.0 °F60.0 °F76 %29.94 in5.0 miCalmMist
12:30 AM66.2 °F60.8 °F83 %29.92 in5.0 miCalmScattered Clouds
1:20 AM66.2 °F57.2 °F73 %29.92 in5.0 miCalmScattered Clouds
1:30 AM66.2 °F57.2 °F73 %29.92 in5.0 miCalmScattered Clouds
2:20 AM64.4 °F55.4 °F73 %29.92 in5.0 miCalmScattered Clouds
2:30 AM64.4 °F55.4 °F73 %29.92 in5.0 miCalmScattered Clouds
3:30 AM64.0 °F55.0 °F66 %29.94 in5.0 miCalmHaze
4:20 AM62.6 °F55.4 °F77 %29.92 in5.0 miCalmClear
4:30 AM62.6 °F55.4 °F77 %29.92 in5.0 miCalmClear
5:20 AM62.6 °F51.8 °F68 %29.92 in5.0 miNNW (340°)4.6 mphClear
5:30 AM62.6 °F51.8 °F68 %29.92 in5.0 miNNW (340°)4.6 mphClear
6:20 AM64.4 °F51.8 °F64 %29.95 inNorth (350°)4.6 mphClear
6:30 AM64.0 °F52.0 °F56 %29.98 in6.0 miNorth (350°)4.5 mphClear
6:30 AM64.4 °F51.8 °F64 %29.95 inNorth (350°)4.6 mphClear
7:00 AM64.4 °F59.0 °F83 %29.98 in4.3 miNW (320°)6.9 mphScattered Clouds
7:20 AM64.4 °F60.8 °F88 %29.98 in3.1 miNNW (330°)13.8 mphPartly Cloudy
7:30 AM64.4 °F60.8 °F88 %29.98 in3.1 miNNW (330°)13.8 mphPartly Cloudy
8:00 AM64.4 °F59.0 °F83 %29.98 in2.5 miNW (320°)13.8 mphClear
8:20 AM64.4 °F59.0 °F83 %30.01 in3.1 miNNW (330°)16.1 mphClear
8:30 AM64.4 °F59.0 °F83 %30.01 in3.1 miNNW (330°)16.1 mphClear
9:00 AM66.2 °F59.0 °F78 %30.01 in3.1 miNNW (330°)13.8 mphHaze
9:20 AM66.2 °F57.2 °F73 %30.04 in5.0 miNNW (330°)11.5 mphClear
9:30 AM66.2 °F57.2 °F73 %30.04 in5.0 miNNW (330°)11.5 mphClear
9:30 AM66.0 °F58.0 °F67 %30.04 in5.0 miNNW (330°)11.2 mphHaze
10:00 AM68.0 °F55.4 °F64 %30.04 in5.0 miNNW (330°)11.5 mphClear
10:20 AM68.0 °F53.6 °F60 %30.04 inNNW (340°)18.4 mphClear
10:30 AM68.0 °F53.6 °F60 %30.04 inNNW (340°)18.4 mphClear
11:20 AM68.0 °F51.8 °F56 %30.04 inNNW (330°)18.4 mphClear
11:30 AM68.0 °F51.8 °F56 %30.04 inNNW (330°)18.4 mphClear
12:20 PM68.0 °F51.8 °F56 %30.04 inNW (320°)23.0 mphClear
12:30 PM68.0 °F51.8 °F56 %30.04 inNW (320°)23.0 mphClear
12:30 PM68.0 °F51.0 °F44 %30.05 in6.0 miNW (320°)22.4 mph
1:20 PM68.0 °F48.2 °F49 %30.01 inNW (320°)18.4 mphClear
1:30 PM68.0 °F48.2 °F49 %30.01 inNW (320°)18.4 mphClear
2:30 PM66.2 °F50.0 °F56 %29.98 inNW (320°)23.0 mphClear
3:20 PM66.2 °F50.0 °F56 %29.98 inNW (320°)20.7 mphClear
3:30 PM67.0 °F50.0 °F43 %30.01 in6.0 miNW (320°)20.1 mph
3:30 PM66.2 °F50.0 °F56 %29.98 inNW (320°)20.7 mphClear
4:00 PM66.2 °F50.0 °F56 %29.98 inNW (320°)23.0 mphClear
4:20 PM66.2 °F48.2 °F52 %29.98 inNW (320°)23.0 mphClear
4:30 PM66.2 °F48.2 °F52 %29.98 inNW (320°)23.0 mphClear
5:00 PM66.2 °F50.0 °F56 %29.98 inNW (310°)20.7 mphClear
5:20 PM66.2 °F51.8 °F60 %29.98 inNW (320°)20.7 mphClear
5:30 PM66.2 °F51.8 °F60 %29.98 inNW (320°)20.7 mphClear
6:00 PM66.2 °F51.8 °F60 %29.98 inNNW (330°)20.7 mphClear
6:20 PM66.2 °F50.0 °F56 %29.98 inNNW (330°)20.7 mphClear
6:30 PM66.2 °F50.0 °F56 %29.98 inNNW (330°)20.7 mphClear
6:30 PM65.0 °F51.0 °F50 %30.01 in6.0 miNNW (330°)20.1 mph
7:00 PM66.2 °F50.0 °F56 %30.01 inNNW (330°)20.7 mphClear
7:20 PM66.2 °F50.0 °F56 %30.01 inNNW (330°)16.1 mphClear
7:30 PM66.2 °F50.0 °F56 %30.01 inNNW (330°)16.1 mphClear
8:00 PM66.2 °F50.0 °F56 %30.01 inNNW (330°)16.1 mphClear
8:20 PM66.2 °F48.2 °F52 %30.01 inNNW (330°)13.8 mphClear
8:30 PM66.2 °F48.2 °F52 %30.01 inNNW (330°)13.8 mphClear
9:00 PM66.2 °F48.2 °F52 %30.01 inNNW (330°)13.8 mphClear
9:20 PM66.2 °F46.4 °F49 %30.01 inNNW (330°)18.4 mphClear
9:30 PM66.0 °F46.0 °F38 %30.03 in6.0 miNNW (330°)17.9 mph
9:30 PM66.2 °F46.4 °F49 %30.01 inNNW (330°)18.4 mphClear
10:20 PM64.4 °F44.6 °F49 %30.04 inNNW (330°)13.8 mphClear
10:30 PM64.4 °F44.6 °F49 %30.04 inNNW (330°)13.8 mphClear
11:20 PM64.4 °F48.2 °F56 %30.04 in3.7 miNNW (330°)20.7 mphClear
11:30 PM64.4 °F48.2 °F56 %30.04 in3.7 miNNW (330°)20.7 mphClear
Hourly data recorded from OIBB, located miles away from Bushehr, Iran







STORIES FROM OUR PARTNERS